Temperature
13 14 14 15 18 20 21 20 20 19 19 18 17 18 20 20 20 19 14 13 14 14 15 15 16 16 16 16 17 17 17 17 17 17 17 17 17 17 17 17 17 17 17 17 17 16 16 16 16
13 13 14 16 19 21 21 19 18 18 17 16 17 17 18 17 16 14 13 13 14 14 15 15 16 16 16 16 16 17 17 17 17 17 17 17 17 17 17 17 17 17 17 17 16 16 16 16 16
13 13 15 18 19 21 20 18 18 16 15 16 17 17 17 16 14 13 12 13 14 14 14 15 15 16 16 16 16 16 16 16 17 17 17 17 17 17 17 17 16 16 16 17 16 16 16 16 16
13 14 16 18 19 18 18 17 16 16 16 15 16 17 15 13 13 12 12 13 13 14 14 14 15 15 16 16 16 16 16 16 16 16 16 17 16 16 16 16 16 16 16 16 16 16 16 16 16
13 16 17 18 18 17 16 15 15 16 16 15 15 16 15 13 12 12 12 13 13 13 14 14 14 15 15 15 15 15 16 16 16 16 16 16 16 16 16 16 16 16 16 16 16 16 16 16 15
14 16 18 18 17 16 15 14 14 15 15 15 15 15 15 12 12 12 12 12 13 13 13 14 14 14 15 15 15 15 15 15 15 16 16 16 16 16 16 16 16 16 16 16 16 16 15 15 15
15 16 18 17 16 16 15 13 14 15 15 14 14 15 14 13 11 11 12 12 12 13 13 13 13 14 14 14 15 15 15 15 15 15 15 15 15 15 15 15 15 15 15 15 15 15 15 15 15
13 16 16 16 16 15 13 12 12 13 14 12 12 14 14 12 11 11 11 11 12 12 12 13 13 13 13 14 14 14 14 15 15 15 15 15 15 15 15 15 15 15 15 15 15 15 15 15 15
12 15 16 15 15 14 12 13 12 11 12 12 11 12 11 10 10 10 11 11 11 11 12 12 12 12 13 13 13 14 14 14 14 14 14 14 14 14 14 14 15 15 15 15 15 15 14 14 14
13 15 15 13 13 13 12 12 11 12 12 12 12 11 10 10 10 10 10 10 10 10 11 11 12 12 12 12 13 13 13 13 14 14 14 14 14 14 14 14 14 14 14 14 14 14 14 14 14
12 13 12 11 11 10 11 11 10 11 12 12 11 11 10 9 9 9 9 9 10 10 10 10 11 11 11 11 12 12 12 13 13 13 13 13 13 13 13 13 13 13 13 13 13 14 13 13 13
11 11 10 10 9 9 10 10 10 10 11 10 10 9 9 9 9 9 9 9 9 9 9 9 10 10 10 11 11 11 11 12 12 12 12 12 13 13 13 13 13 13 13 13 13 13 13 13 13
11 10 9 9 8 8 9 9 10 10 10 9 9 8 8 9 8 8 8 8 8 8 9 9 9 9 9 10 10 10 11 11 11 12 12 12 12 12 12 12 12 12 12 12 12 12 12 12 13
10 9 9 9 9 8 9 10 9 10 9 9 8 9 8 8 8 8 8 8 8 8 8 8 8 9 9 9 9 9 10 10 11 11 11 11 11 12 12 12 12 12 12 12 12 12 12 12 12
8 10 10 10 9 9 8 11 11 10 9 9 9 9 8 8 7 7 7 7 7 7 8 8 8 8 8 8 8 9 9 9 10 10 10 11 11 11 11 11 11 11 11 11 11 11 11 11 11
10 11 12 11 9 9 9 12 12 9 9 9 9 9 8 8 7 7 7 7 7 7 7 7 7 7 8 8 8 8 8 9 9 9 10 10 10 11 11 11 10 11 11 11 11 11 11 11 11
11 12 12 11 9 9 9 11 12 10 9 9 9 9 8 8 7 7 7 7 7 7 7 7 7 7 7 7 7 7 8 8 8 8 9 9 10 10 10 10 10 10 10 10 10 10 10 10 10
11 11 11 11 10 8 9 10 11 10 9 9 9 8 8 8 7 7 7 7 7 7 7 6 6 6 7 7 7 7 7 7 8 8 8 8 9 9 9 9 9 9 9 9 9 9 10 10 10
9 9 9 10 9 8 9 10 10 10 9 9 9 8 8 7 7 7 7 6 6 7 6 6 6 6 6 6 6 6 6 7 7 7 7 8 8 8 9 9 9 9 9 9 9 9 9 9 9
8 9 10 10 8 8 8 9 10 9 9 8 8 8 8 7 7 7 6 6 6 6 6 6 6 6 6 6 6 6 6 6 6 7 7 7 7 8 8 8 8 8 8 8 8 9 8 8 9
9 9 9 8 8 8 7 11 11 10 8 8 7 7 7 7 7 7 6 6 6 6 6 6 6 6 6 5 5 5 5 6 6 6 6 7 7 7 7 7 8 8 8 8 8 8 8 8 8
9 8 7 7 7 9 7 10 12 10 9 9 8 8 7 7 7 6 6 6 6 6 6 6 5 5 5 5 5 5 5 5 6 6 6 6 6 7 7 7 7 7 7 7 8 8 8 8 8
8 7 6 6 7 7 7 7 12 10 10 10 9 8 8 7 6 6 6 6 6 6 5 5 5 5 5 5 5 5 5 5 5 5 5 6 6 6 6 6 7 7 7 7 7 7 7 8 8
6 6 6 6 7 7 8 8 11 11 10 10 9 8 7 7 6 6 6 6 5 5 5 5 5 5 5 4 5 5 5 5 5 5 5 5 6 6 6 6 6 6 6 6 7 7 7 7 7
7 8 9 9 9 10 7 7 10 10 9 8 8 8 7 7 6 6 5 5 5 5 5 5 4 4 4 4 4 4 4 4 4 5 5 5 5 5 6 6 6 6 6 6 6 7 7 7 7
7 7 8 9 11 11 8 8 10 9 8 7 7 7 7 7 6 5 5 5 5 5 5 4 4 4 4 4 4 4 4 4 4 4 4 5 5 5 5 5 6 6 6 6 6 7 7 7 7
6 7 6 6 5 6 9 9 9 9 9 8 8 7 7 6 6 5 5 5 5 4 4 4 4 4 4 3 3 4 4 4 4 4 4 4 5 5 5 5 5 5 6 6 6 6 6 7 7
6 6 5 6 7 9 10 9 10 9 9 9 8 8 7 6 5 5 5 4 4 4 4 4 3 3 3 3 3 3 3 4 4 4 4 4 4 4 4 5 5 5 5 5 6 6 6 6 6
4 5 5 6 6 7 9 11 10 9 9 9 8 7 6 6 5 5 4 4 4 4 4 4 3 3 3 3 3 3 3 3 4 4 4 4 4 4 4 4 4 5 5 5 5 6 6 6 6
5 5 5 6 5 5 7 9 10 9 8 7 7 7 6 5 5 4 4 4 4 3 3 3 3 3 3 3 3 3 3 3 3 3 4 3 4 4 4 4 4 5 5 5 5 5 6 6 6
Wind_Speed
3 1 3 3 5 5 6 4 3 4 2 1 2 2 1 1 1 3 4 10 12 11 10 9 11 10 8 7 4 3 2 1 3 4 5 8 9 10 11 11 11 12 13 13 14 14 15 15 15
1 2 4 4 5 7 5 5 5 2 2 3 1 1 1 1 3 3 5 11 12 10 10 9 12 11 9 8 5 3 2 1 1 3 3 6 8 9 10 10 11 11 12 13 14 14 15 15 15
1 2 4 4 5 6 4 4 3 1 2 1 0 1 1 1 2 3 8 10 10 10 10 10 13 12 10 8 6 4 3 2 1 2 3 4 6 8 8 9 10 10 11 12 14 15 15 15 15
3 3 3 5 7 3 2 3 1 1 1 2 1 0 1 2 2 5 9 10 10 10 10 10 13 12 11 9 7 5 3 3 2 2 3 4 5 6 7 8 9 10 11 12 13 15 16 16 16
2 4 5 6 6 3 1 0 1 2 1 2 2 3 2 3 4 7 9 10 10 10 10 10 11 11 11 10 9 7 5 3 3 2 3 4 5 5 6 7 8 9 10 11 12 14 15 16 17
4 4 6 7 6 4 3 1 3 4 3 3 3 4 3 2 5 10 10 10 9 9 10 10 10 10 10 9 8 8 6 5 3 3 3 4 5 6 5 7 8 8 10 11 12 13 14 15 17
4 4 4 4 4 5 2 1 3 4 4 3 4 5 3 1 7 10 10 9 9 9 9 9 10 10 9 9 8 7 7 6 5 4 4 4 6 6 7 7 8 9 9 10 12 13 14 14 16
1 3 3 4 5 4 1 1 2 5 5 3 4 5 4 6 10 11 10 8 8 8 8 9 9 9 10 9 7 8 7 6 5 5 4 4 6 7 8 8 7 9 10 10 11 13 14 15 16
1 4 5 4 4 3 1 3 3 3 5 5 5 6 7 10 11 10 9 9 8 8 8 8 9 9 9 9 8 8 6 5 5 4 3 4 5 6 7 7 6 8 10 10 12 13 14 14 15
2 4 2 1 1 2 3 5 5 5 8 8 7 7 7 9 10 10 10 10 10 9 9 8 8 9 9 8 7 6 6 5 5 4 4 4 5 6 6 6 7 8 10 11 12 13 14 14 13
1 2 2 2 1 3 5 6 5 7 9 8 8 8 8 9 9 9 9 9 9 8 8 8 8 8 8 7 6 5 5 5 5 5 4 4 4 4 4 4 5 6 8 9 9 11 11 11 10
1 1 2 2 2 4 6 6 7 9 10 7 8 8 9 9 9 9 10 10 10 8 8 7 7 7 7 7 6 5 5 4 4 4 4 3 3 3 4 4 4 5 5 6 7 6 10 11 12
2 1 2 4 6 7 8 10 10 12 11 8 8 8 8 9 9 9 9 9 9 9 8 7 7 7 7 6 6 6 5 5 4 4 4 4 3 4 4 4 5 5 5 6 7 7 9 9 10
1 3 5 5 5 4 7 11 8 10 6 6 7 7 8 9 9 9 8 9 9 9 8 7 7 7 6 6 6 6 6 5 5 4 5 5 4 4 4 5 5 5 6 6 7 8 8 8 8
2 3 3 2 3 3 7 10 8 6 4 6 8 8 9 9 9 8 8 8 9 9 9 8 7 7 7 6 7 6 6 6 5 5 6 6 5 5 4 5 5 5 6 7 7 8 8 7 8
2 2 2 0 3 2 5 8 2 3 6 9 10 10 9 8 8 7 7 8 8 9 9 8 7 7 7 7 7 6 7 7 5 5 6 6 7 6 5 4 5 6 6 6 6 7 7 8 8
0 2 5 4 1 3 5 11 7 6 9 12 11 10 9 8 7 6 6 7 8 9 9 8 8 8 8 8 7 8 7 7 6 6 6 6 7 7 6 5 6 6 5 5 7 7 8 8 8
3 4 5 7 4 7 11 16 15 12 11 12 10 8 7 7 7 6 7 7 8 9 9 9 9 8 9 8 7 7 7 7 6 6 7 8 7 8 8 6 7 7 6 6 7 8 8 8 7
3 5 9 8 5 9 13 18 18 12 9 8 7 6 6 6 7 6 7 8 8 9 9 10 10 10 8 7 7 7 8 8 7 7 9 9 9 8 8 7 7 7 8 9 9 7 9 8 7
4 7 8 7 5 8 14 18 13 7 5 4 5 5 5 6 7 7 8 8 9 9 10 10 11 11 9 8 8 8 9 9 8 8 9 10 10 9 8 8 8 9 8 10 10 9 8 8 8
5 6 8 10 12 6 9 9 4 2 2 3 4 4 5 6 8 9 9 10 10 10 10 10 11 11 11 10 8 8 8 8 8 9 9 10 11 11 10 11 9 10 10 10 11 11 11 10 10
5 4 8 10 9 5 5 7 5 2 3 4 4 4 5 7 8 10 10 11 11 11 11 11 12 12 11 10 10 11 11 11 12 10 10 11 12 12 12 11 11 11 11 11 12 12 11 12 11
4 5 6 6 5 6 4 5 6 2 4 4 4 5 6 8 9 10 11 11 12 12 11 11 12 12 12 11 12 12 13 12 11 10 12 12 12 13 13 12 11 12 11 13 13 12 12 12 12
3 3 2 3 3 4 4 5 6 4 5 3 4 6 8 9 10 11 11 12 13 12 12 12 13 13 13 12 12 13 14 15 14 14 12 11 11 11 14 13 12 13 12 13 13 13 15 13 14
2 3 3 2 3 3 2 5 8 4 5 6 7 8 9 11 11 12 13 14 14 14 13 13 14 14 14 13 13 13 14 16 16 15 13 12 11 11 13 13 13 13 13 13 13 14 14 15 15
1 1 2 4 5 5 3 7 6 4 6 7 8 9 10 11 12 13 14 14 14 14 14 14 14 15 14 14 13 13 14 12 12 14 13 14 12 12 13 14 14 14 14 14 14 13 14 14 15
2 2 1 1 3 6 7 7 9 7 8 8 9 10 11 12 13 14 14 14 15 15 14 14 15 15 14 14 14 14 13 13 13 13 13 12 12 12 13 14 14 14 14 14 14 13 15 14 15
1 4 3 2 3 6 8 7 5 6 7 6 8 10 12 13 14 14 14 14 14 14 14 14 14 14 14 14 13 12 13 13 13 12 12 13 13 13 13 13 14 14 15 14 14 13 14 15 14
5 4 4 3 3 5 7 7 3 7 6 7 9 11 13 14 15 14 14 15 14 14 14 13 13 14 13 13 13 13 13 13 12 11 11 12 12 12 13 13 14 14 15 14 14 14 15 16 15
6 7 7 4 5 5 7 9 3 6 6 8 12 14 15 15 15 15 15 15 14 14 14 13 13 13 13 13 13 13 12 12 11 11 11 11 12 12 12 13 13 14 14 14 15 16 15 16 16
Wind_Direction
316 252 203 197 204 219 223 197 185 155 151 8 325 282 271 301 311 92 38 359 349 347 351 358 359 359 4 6 13 37 57 130 161 171 175 181 184 185 183 182 181 182 181 179 175 171 168 163 158
283 198 192 205 225 221 208 189 186 161 3 333 298 255 211 100 48 55 12 351 348 352 356 2 358 358 359 0 3 13 24 33 173 179 182 186 189 191 189 186 183 182 184 184 180 174 171 167 162
180 221 198 203 223 236 186 151 151 100 13 336 349 0 309 103 74 30 2 347 349 357 0 6 1 357 355 352 356 359 353 335 260 193 189 195 193 194 194 191 187 184 183 185 183 177 174 170 166
193 174 199 225 222 229 200 135 111 206 100 24 315 219 134 72 50 7 353 349 352 358 359 3 3 357 354 352 349 348 332 316 294 241 210 205 201 202 197 192 187 186 186 185 183 180 176 173 169
199 197 205 219 223 203 187 260 264 265 276 343 318 284 234 122 30 360 352 349 349 354 356 355 357 355 351 349 348 343 333 313 297 272 239 223 218 213 208 197 191 188 188 188 185 181 180 177 173
179 208 220 224 210 198 199 260 262 272 277 296 303 280 258 153 360 349 344 342 344 347 351 352 351 348 347 343 339 339 333 324 307 281 255 237 229 222 211 203 196 194 196 191 191 184 179 180 176
203 211 234 228 207 209 201 264 267 288 279 292 307 282 244 270 344 336 333 334 338 345 348 350 348 344 337 336 330 329 327 318 308 287 267 251 238 223 214 206 202 200 200 200 195 192 184 182 182
244 210 211 214 217 213 176 273 296 295 292 314 290 272 268 327 329 325 324 326 333 339 343 345 345 343 337 327 325 320 314 307 298 284 274 260 239 223 213 207 203 205 205 204 200 196 191 187 185
228 221 225 214 215 196 214 274 291 292 275 273 269 283 306 317 318 318 319 319 326 331 336 341 342 339 336 327 324 314 300 292 284 273 275 255 239 231 219 214 207 209 208 209 205 200 193 189 187
209 226 223 161 220 241 276 288 298 277 270 269 272 284 302 311 316 314 316 316 318 324 330 336 338 336 333 329 321 315 300 288 278 277 271 260 252 240 234 216 206 207 208 208 205 201 194 193 190
198 227 155 191 259 283 281 283 277 271 270 275 290 301 308 310 311 310 309 311 311 313 320 329 331 331 329 326 321 319 308 296 284 279 277 273 262 245 230 215 200 199 204 205 199 200 201 201 194
172 186 235 246 284 282 279 277 270 255 266 289 294 298 299 303 305 304 309 312 313 307 312 321 326 327 326 321 322 313 308 298 292 284 283 280 271 254 236 224 215 209 209 209 206 210 209 206 200
200 222 259 271 277 276 270 263 272 265 266 279 285 287 291 300 301 301 304 302 307 305 305 315 319 325 324 317 318 313 308 295 287 281 273 271 262 253 240 233 220 219 216 214 214 215 213 210 204
246 267 280 282 273 267 275 274 261 264 270 269 276 283 291 299 301 300 300 302 304 307 305 314 313 316 317 312 312 307 302 289 281 278 271 264 256 249 245 238 229 223 222 220 220 220 215 212 208
267 276 261 254 277 281 298 274 234 253 263 273 279 286 296 298 293 291 296 297 298 304 307 308 306 308 313 311 306 306 300 289 279 277 266 261 254 247 244 245 236 226 224 224 222 222 218 211 210
235 249 262 245 315 300 298 280 248 245 273 282 285 290 293 296 293 294 296 294 293 299 301 305 300 303 310 308 301 299 302 293 281 279 271 263 255 247 243 240 242 228 221 221 222 220 218 212 208
248 295 293 298 313 301 280 276 277 276 283 282 284 286 288 294 298 303 304 300 295 298 298 304 303 305 305 301 296 292 295 288 279 274 269 264 259 249 247 239 242 229 221 222 224 220 217 213 210
297 296 288 291 318 301 279 276 285 289 282 277 277 278 281 291 300 306 307 305 300 299 298 302 303 300 299 297 294 294 292 286 278 271 266 262 259 252 247 240 240 234 225 220 222 222 216 216 210
269 275 285 288 305 301 283 286 290 295 281 265 263 269 277 292 303 308 307 309 305 303 301 302 302 301 302 296 293 292 289 284 278 271 262 259 256 252 246 242 235 232 229 222 220 222 216 212 203
258 281 290 294 303 298 295 290 287 286 266 255 258 264 282 299 309 312 312 313 311 304 302 299 299 298 296 288 288 281 279 279 275 268 263 258 252 247 244 242 236 230 231 227 220 216 220 216 203
266 271 297 304 311 278 302 285 241 229 239 250 252 260 280 298 308 314 316 314 314 313 310 303 299 296 294 290 286 281 277 276 272 267 262 255 253 248 243 239 238 234 229 226 220 214 216 214 213
281 277 290 298 306 300 332 298 272 258 255 240 248 259 283 301 305 310 313 316 315 312 309 305 303 296 293 289 280 276 273 275 271 269 263 256 252 249 244 239 234 234 233 227 221 219 218 213 213
281 309 291 281 273 283 253 261 275 249 249 234 242 268 292 302 305 308 311 313 313 311 308 307 306 298 294 289 281 274 269 274 274 268 262 256 250 247 242 238 234 231 234 232 225 221 219 215 216
284 284 242 221 241 264 242 249 276 233 228 243 264 288 303 308 306 308 312 313 312 312 310 309 308 303 299 292 285 276 273 276 273 266 263 258 252 246 240 238 235 232 232 233 228 221 219 220 221
302 302 295 285 261 264 157 253 259 257 241 249 266 285 299 306 309 312 313 314 314 312 311 311 309 305 303 298 290 285 278 274 268 262 259 257 252 248 240 238 236 234 231 231 230 223 221 221 221
244 284 293 292 291 297 252 251 260 267 261 262 274 287 297 304 309 311 312 311 310 309 309 310 308 306 304 301 296 291 284 277 269 259 258 255 250 247 246 239 237 235 232 230 229 224 223 221 222
177 184 5 250 286 280 263 266 282 255 250 259 280 292 300 306 310 311 310 309 309 308 308 306 305 305 304 301 297 292 288 283 274 263 259 258 253 248 246 243 238 235 232 230 228 222 221 220 220
267 157 168 212 279 281 278 269 259 245 252 266 288 300 306 309 310 311 309 308 306 306 305 305 302 303 302 301 298 294 292 286 278 270 262 261 258 252 247 248 239 234 232 229 230 225 220 218 219
172 181 202 217 255 269 287 278 238 253 261 279 297 305 310 311 310 310 309 308 306 307 306 306 305 305 304 304 300 298 295 290 277 272 269 267 263 258 250 247 244 236 230 228 229 224 219 218 218
220 209 190 217 236 236 270 278 261 256 274 291 302 308 311 310 309 309 310 310 309 308 308 307 307 306 307 306 302 300 295 294 281 276 274 270 266 259 252 248 247 239 230 228 229 222 218 218 215
Height
1502 1504 1506 1510 1508 1502 1496 1496 1497 1501 1502 1505 1505 1504 1501 1501 1502 1509 1511 1507 1506 1505 1504 1503 1502 1503 1503 1503 1504 1504 1504 1505 1505 1506 1507 1507 1508 1509 1509 1510 1511 1512 1513 1513 1514 1514 1515 1516 1516
1503 1505 1509 1509 1502 1495 1494 1496 1500 1502 1506 1507 1506 1505 1504 1505 1508 1509 1508 1506 1505 1504 1503 1502 1502 1502 1502 1502 1503 1503 1504 1504 1505 1505 1506 1506 1507 1508 1508 1509 1510 1510 1511 1512 1513 1513 1514 1515 1515
1503 1505 1508 1504 1498 1490 1492 1499 1502 1506 1507 1507 1506 1506 1506 1507 1509 1509 1507 1505 1505 1504 1503 1502 1501 1501 1501 1501 1502 1502 1502 1503 1503 1504 1504 1505 1505 1506 1507 1508 1508 1509 1509 1510 1511 1512 1513 1513 1514
1505 1508 1508 1502 1496 1497 1498 1502 1506 1506 1507 1507 1507 1506 1507 1509 1509 1508 1506 1505 1504 1503 1502 1501 1500 1500 1500 1500 1500 1500 1500 1501 1501 1502 1502 1503 1504 1504 1505 1506 1506 1507 1508 1509 1510 1510 1511 1512 1513
1505 1506 1502 1498 1497 1500 1504 1506 1507 1506 1506 1507 1507 1506 1506 1508 1507 1506 1504 1503 1502 1501 1500 1499 1498 1498 1498 1498 1498 1498 1498 1498 1499 1499 1500 1500 1501 1502 1503 1503 1504 1505 1506 1507 1508 1508 1509 1511 1512
1506 1503 1497 1493 1496 1502 1505 1508 1508 1506 1506 1507 1507 1506 1506 1507 1505 1504 1503 1502 1501 1500 1498 1497 1497 1496 1496 1495 1495 1495 1495 1496 1496 1496 1497 1498 1498 1499 1500 1501 1502 1503 1504 1505 1505 1506 1507 1509 1510
1505 1501 1495 1494 1498 1501 1506 1508 1508 1507 1506 1507 1508 1506 1505 1505 1504 1502 1501 1500 1499 1498 1497 1496 1495 1494 1493 1493 1493 1493 1493 1493 1493 1493 1494 1495 1496 1496 1497 1498 1499 1500 1501 1502 1503 1504 1505 1507 1508
1504 1502 1499 1498 1499 1501 1507 1508 1509 1508 1507 1508 1508 1505 1503 1504 1502 1501 1500 1499 1497 1496 1495 1493 1492 1491 1490 1490 1490 1489 1490 1490 1490 1490 1491 1492 1492 1493 1494 1495 1496 1497 1498 1499 1500 1501 1503 1504 1505
1505 1503 1496 1498 1500 1503 1508 1508 1508 1508 1507 1506 1506 1505 1504 1502 1500 1499 1498 1497 1495 1494 1492 1491 1489 1488 1487 1487 1486 1486 1486 1486 1486 1487 1487 1488 1489 1489 1490 1491 1492 1493 1494 1496 1497 1499 1500 1501 1503
1505 1499 1498 1503 1504 1505 1507 1508 1508 1506 1504 1503 1503 1503 1501 1500 1498 1497 1495 1494 1492 1491 1489 1488 1486 1485 1484 1483 1483 1482 1483 1482 1483 1483 1483 1484 1485 1485 1486 1487 1488 1490 1491 1492 1494 1495 1497 1498 1500
1505 1502 1505 1506 1507 1508 1507 1507 1507 1505 1500 1500 1500 1500 1499 1498 1496 1494 1493 1491 1489 1488 1486 1484 1483 1482 1481 1480 1479 1479 1478 1478 1479 1479 1479 1480 1480 1481 1482 1483 1484 1485 1487 1489 1490 1492 1493 1495 1496
1506 1506 1507 1507 1508 1508 1507 1505 1504 1502 1500 1499 1499 1498 1496 1495 1493 1492 1490 1488 1486 1485 1483 1482 1480 1479 1478 1477 1476 1475 1475 1474 1474 1474 1475 1475 1476 1477 1477 1479 1480 1481 1483 1484 1486 1488 1489 1491 1493
1506 1506 1507 1507 1507 1506 1505 1504 1502 1498 1497 1497 1496 1495 1493 1492 1490 1489 1487 1485 1483 1482 1480 1479 1477 1476 1474 1473 1472 1472 1471 1470 1470 1470 1470 1471 1471 1472 1473 1474 1475 1476 1478 1480 1481 1483 1485 1486 1488
1507 1506 1506 1506 1505 1504 1503 1499 1500 1493 1494 1494 1493 1492 1491 1489 1487 1485 1484 1482 1480 1478 1477 1475 1474 1472 1471 1470 1469 1467 1466 1466 1465 1465 1466 1466 1467 1468 1468 1468 1470 1471 1473 1475 1477 1479 1480 1482 1484
1507 1505 1503 1503 1503 1502 1502 1493 1492 1491 1492 1491 1490 1489 1487 1485 1484 1482 1480 1478 1477 1475 1473 1472 1470 1469 1467 1466 1465 1464 1462 1461 1460 1461 1461 1461 1462 1463 1464 1464 1464 1465 1468 1470 1472 1474 1476 1477 1479
1505 1501 1496 1499 1501 1501 1502 1485 1487 1489 1489 1488 1486 1485 1483 1482 1480 1479 1477 1475 1473 1472 1470 1468 1467 1465 1463 1462 1461 1459 1458 1457 1455 1456 1456 1456 1457 1458 1458 1459 1459 1460 1462 1464 1466 1469 1470 1472 1475
1499 1496 1495 1496 1500 1500 1498 1486 1484 1487 1486 1484 1482 1481 1480 1479 1477 1476 1473 1472 1470 1468 1466 1464 1463 1461 1459 1458 1456 1455 1453 1452 1451 1451 1451 1451 1451 1452 1453 1453 1454 1455 1456 1458 1461 1463 1465 1467 1469
1498 1497 1497 1495 1497 1499 1493 1484 1480 1482 1482 1480 1478 1478 1477 1475 1474 1473 1471 1469 1467 1465 1463 1460 1459 1457 1455 1454 1452 1450 1449 1448 1446 1446 1445 1446 1446 1447 1447 1448 1449 1449 1450 1452 1455 1457 1460 1463 1465
1504 1503 1499 1495 1499 1498 1487 1480 1475 1476 1476 1475 1475 1474 1474 1472 1471 1469 1468 1466 1463 1461 1459 1457 1454 1452 1451 1449 1447 1445 1444 1442 1441 1440 1440 1440 1441 1441 1441 1442 1443 1444 1445 1446 1449 1452 1454 1457 1460
1504 1501 1495 1493 1497 1496 1486 1478 1471 1472 1473 1473 1473 1472 1471 1470 1468 1467 1465 1462 1460 1457 1455 1452 1449 1448 1446 1444 1443 1441 1439 1437 1435 1435 1434 1434 1435 1435 1435 1436 1437 1438 1439 1441 1443 1445 1449 1451 1454
1500 1499 1496 1497 1494 1493 1491 1468 1465 1468 1471 1471 1471 1470 1469 1468 1466 1463 1461 1459 1456 1453 1450 1448 1445 1443 1441 1439 1437 1435 1433 1431 1429 1429 1428 1427 1428 1428 1429 1429 1430 1431 1433 1434 1436 1439 1442 1445 1448
1496 1499 1501 1499 1495 1484 1491 1472 1457 1464 1466 1467 1467 1467 1467 1465 1463 1461 1458 1455 1452 1449 1446 1443 1440 1438 1436 1434 1432 1430 1427 1424 1423 1422 1421 1420 1421 1421 1422 1422 1423 1425 1426 1427 1429 1432 1435 1438 1441
1499 1502 1502 1500 1496 1493 1488 1486 1456 1462 1461 1461 1463 1464 1464 1463 1460 1457 1455 1452 1449 1446 1442 1439 1436 1433 1430 1428 1426 1423 1420 1418 1416 1415 1414 1413 1413 1414 1414 1415 1416 1417 1419 1420 1422 1425 1428 1431 1434
1504 1502 1501 1499 1494 1487 1482 1481 1455 1454 1458 1458 1460 1461 1461 1459 1457 1454 1452 1449 1445 1442 1438 1435 1431 1427 1425 1422 1419 1416 1413 1410 1408 1407 1406 1405 1405 1406 1406 1407 1408 1410 1411 1413 1415 1418 1421 1424 1428
1501 1495 1485 1479 1478 1469 1483 1481 1460 1455 1458 1459 1459 1459 1458 1457 1454 1451 1448 1444 1440 1437 1434 1430 1426 1421 1418 1415 1412 1409 1406 1403 1400 1399 1398 1397 1397 1397 1397 1399 1400 1402 1404 1406 1408 1410 1413 1417 1420
1500 1497 1491 1483 1469 1463 1477 1471 1454 1456 1458 1458 1458 1457 1455 1453 1451 1448 1444 1440 1436 1433 1429 1425 1421 1416 1412 1409 1405 1402 1398 1395 1392 1391 1390 1389 1388 1388 1390 1391 1392 1394 1396 1398 1400 1403 1406 1409 1413
1500 1497 1501 1498 1500 1493 1465 1461 1456 1452 1453 1454 1454 1453 1451 1450 1447 1444 1440 1436 1432 1428 1424 1421 1416 1411 1407 1403 1398 1395 1391 1388 1385 1383 1382 1381 1380 1380 1381 1382 1384 1386 1388 1390 1393 1395 1398 1401 1405
1502 1501 1502 1497 1489 1472 1457 1455 1449 1447 1447 1449 1449 1449 1448 1446 1443 1440 1436 1432 1428 1424 1420 1416 1411 1406 1401 1397 1392 1388 1384 1381 1378 1375 1374 1373 1372 1372 1373 1374 1375 1377 1380 1382 1385 1387 1390 1394 1397
1503 1503 1498 1495 1493 1481 1461 1446 1444 1445 1445 1446 1446 1446 1444 1442 1439 1435 1431 1427 1423 1419 1415 1410 1405 1400 1395 1390 1386 1382 1378 1374 1371 1369 1367 1366 1365 1364 1365 1365 1367 1369 1371 1374 1377 1379 1382 1386 1390
1496 1494 1495 1492 1492 1491 1475 1453 1443 1445 1445 1446 1445 1443 1441 1439 1435 1431 1427 1422 1418 1413 1408 1404 1399 1395 1390 1385 1380 1376 1372 1368 1365 1363 1361 1360 1358 1357 1357 1358 1359 1360 1363 1366 1369 1371 1374 1378 1382